SCP
-0 -0 -0 -0 -0 0 0 -0 -0 -0 -0 0 0 -0 -0 -0 -0 0 0 -0 -0 0 0 0 0 0 0 -0 0 0 -0 -0 0 0 0 0 0 0 0 0 -0 -0 -0
-0 -0 -0 0 0 0 0 0 0 0 0 0 0 0 0 0 0 0 0 -0 0 0 0 0 0 0 -0 -0 -0 0 0 0 0 0 0 -0 -0 0 0 0 -0 -0 -0
-0 -0 -0 0 0 0 0 0 0 0 0 0 0 0 0 0 0 0 -0 -0 0 0 0 0 0 -0 -0 -0 -0 -0 -0 0 0 0 -0 -0 -0 0 0 0 -0 -0 -0
-0 0 0 0 0 0 0 0 0 0 0 0 0 0 0 0 0 0 0 0 0 0 0 0 0 -0 -0 -0 -0 -0 -0 -0 0 -0 -0 -0 0 -0 -0 -0 -0 -0 -0
-0 0 0 0 0 0 0 0 0 0 0 0 0 0 0 -0 0 0 0 0 0 0 0 0 -0 -0 -0 -0 -0 -0 -0 -0 0 -0 0 -0 -0 -0 -0 -0 -0 -0 -0
0 0 0 0 0 0 0 0 0 0 0 0 0 0 -0 -0 0 0 0 0 -0 -0 -0 -0 -0 -0 -0 -0 -0 -0 -0 -0 -0 0 0 -0 -0 -0 -0 -0 -0 -0 -0
0 0 0 0 0 0 0 0 0 0 0 0 0 -0 -0 -0 0 0 -0 -0 -0 -0 -0 -0 -0 -0 -0 -0 -0 -0 -0 -0 -0 -0 0 0 0 -0 -0 -0 -0 -0 -0
-0 0 0 0 0 0 -0 0 0 -0 0 -0 0 -0 -0 0 0 0 -0 -0 -0 -0 -0 -0 -0 -0 -0 -0 -0 -0 -0 -0 -0 0 0 0 -0 0 -0 -0 -0 -0 -0
-0 0 -0 -0 -0 -0 -0 -0 -0 -0 -0 -0 -0 -0 -0 -0 0 0 0 -0 -0 -0 -0 -0 -0 -0 -0 -0 -0 -0 -0 -0 -0 0 -0 0 -0 0 -0 -0 -0 -0 -0
-0 -0 0 -0 -0 -0 -0 -0 -0 -0 -0 -0 -0 -0 -0 -0 0 -0 -0 -0 -0 -0 -0 -0 -0 -0 0 -0 -0 -0 -0 -0 -0 0 0 -0 -0 -0 -0 -0 -0 -0 -0
0 -0 0 0 -0 0 -0 -0 -0 -0 -0 -0 0 -0 -0 0 0 0 -0 0 -0 -0 -0 -0 0 0 0 0 -0 -0 -0 0 0 0 0 -0 0 -0 -0 -0 -0 -0 -0
-0 -0 -0 0 -0 -0 0 0 -0 0 0 0 -0 0 0 0 0 0 -0 -0 -0 -0 -0 -0 -0 0 0 0 0 0 0 0 0 0 0 0 0 0 -0 -0 -0 -0 -0
0 0 0 0 0 0 0 0 0 0 0 0 0 0 0 0 0 -0 -0 -0 -0 -0 0 0 0 0 0 0 0 0 0 0 0 0 0 0 0 0 -0 -0 -0 -0 -0
0 0 0 0 0 0 0 0 0 0 0 0 0 0 0 0 0 0 0 0 0 0 0 0 0 0 0 0 0 0 0 0 0 0 0 0 0 -0 -0 -0 -0 -0 -0
0 0 0 0 0 0 0 0 0 0 0 0 0 0 0 0 0 0 0 0 0 0 0 0 0 0 0 0 0 0 0 0 0 0 0 0 0 0 0 -0 -0 -0 -0
0 0 0 0 0 0 0 0 0 0 0 0 0 0 0 0 0 0 0 0 0 0 0 0 0 0 0 0 0 0 0 0 0 0 0 0 0 0 0 0 0 0 0
0 0 0 0 0 0 0 0 0 0 0 0 0 0 0 0 0 0 0 0 0 0 0 0 0 0 0 0 0 0 0 0 0 0 0 0 0 1 1 0 1 1 0
0 0 0 0 0 0 0 0 0 0 0 0 0 0 0 0 0 0 0 0 0 0 0 0 0 0 0 0 0 0 0 0 0 0 0 0 1 1 0 0 0 0 1
0 0 0 0 0 0 0 0 0 0 0 0 0 0 0 0 0 0 0 0 0 0 0 0 0 0 0 0 0 0 0 0 0 1 0 0 0 0 0 0 0 0 0
0 0 0 0 0 0 0 0 0 0 0 0 0 0 0 0 0 0 0 0 0 0 0 0 0 0 0 0 0 0 0 0 0 0 0 0 0 0 0 0 0 0 0
0 0 0 0 0 0 0 0 0 0 0 0 0 0 0 0 0 0 0 0 0 0 0 0 0 0 0 0 0 0 0 0 0 0 0 0 0 0 0 0 0 0 0
0 0 0 0 0 0 0 0 0 0 0 0 0 0 0 0 0 0 0 0 0 0 0 0 0 0 0 0 0 0 0 0 0 0 0 0 0 0 0 0 0 0 0
0 0 0 0 0 0 0 0 0 0 0 0 0 0 0 0 0 0 0 0 0 0 0 0 0 0 0 0 0 0 0 0 0 0 0 0 0 0 0 0 0 0 0
0 0 0 0 0 0 0 0 0 0 0 0 0 0 0 0 0 0 0 0 0 0 0 0 0 0 0 0 0 0 0 0 0 0 0 0 0 0 0 0 0 0 0
0 0 0 0 0 0 0 0 0 0 0 0 0 0 0 0 0 0 0 0 0 0 0 0 0 0 0 0 0 0 0 0 0 0 0 0 0 0 0 0 0 0 0
0 0 0 0 0 0 0 0 0 0 0 0 0 0 0 0 0 0 0 0 0 0 0 0 0 0 0 0 0 0 0 0 0 0 0 0 0 0 0 0 0 0 0
Wind_Speed_500mb
26 22 27 24 24 24 24 24 26 28 30 31 32 33 34 35 37 36 38 39 36 35 34 32 31 31 32 31 30 30 26 24 26 27 27 28 28 26 26 25 34 14 22
32 26 29 25 25 26 25 26 30 31 31 31 31 32 33 36 37 35 35 34 31 30 28 27 27 27 26 27 28 28 25 20 19 20 25 30 26 25 25 23 22 19 22
32 30 29 27 26 27 29 30 32 33 33 32 31 31 33 33 33 31 30 28 25 25 24 25 23 24 24 24 25 25 24 25 15 15 19 14 10 22 22 20 19 19 20
30 30 27 30 29 29 30 32 34 34 31 30 29 30 29 28 27 25 22 21 20 19 19 19 18 20 20 21 22 23 23 23 19 17 17 11 9 17 17 17 17 15 15
31 26 32 32 30 31 32 33 34 34 30 26 25 25 25 23 21 18 15 14 14 13 13 13 13 14 15 17 17 19 22 25 23 23 8 11 7 10 13 13 12 13 13
33 25 34 34 32 33 33 35 35 32 28 25 24 22 21 19 16 13 10 7 7 8 8 8 8 9 11 13 15 18 19 21 23 11 10 7 9 10 12 10 8 7 7
32 31 32 36 35 36 35 35 34 31 27 25 24 21 19 17 15 11 8 7 6 5 3 4 4 6 8 11 15 16 18 20 17 8 9 10 4 14 12 11 9 4 4
29 31 30 36 37 37 36 35 34 31 27 25 22 21 18 15 13 11 8 5 3 0 2 4 7 8 9 11 13 13 15 18 14 11 8 7 11 14 14 11 9 9 7
25 29 33 30 36 37 36 34 32 29 27 25 23 20 18 16 13 10 9 6 3 2 6 8 9 11 10 11 12 12 15 15 9 9 8 7 13 14 12 13 10 7 8
26 27 25 32 30 29 32 34 32 29 27 25 23 21 17 13 11 9 6 5 4 7 8 9 10 10 9 9 12 12 15 9 10 6 8 7 15 16 15 13 10 8 7
30 31 31 33 36 30 26 29 31 29 27 23 19 18 16 7 8 3 11 7 7 8 10 10 11 10 10 12 13 14 13 9 11 8 8 15 16 16 17 17 12 8 8
24 22 20 21 23 21 18 18 19 17 13 15 13 19 10 15 13 11 14 14 14 13 13 14 14 14 14 9 14 18 12 12 12 11 12 19 20 20 18 18 16 12 10
26 23 23 25 29 22 19 18 16 14 14 13 18 17 16 12 13 10 10 11 11 17 10 13 15 11 14 14 16 15 15 14 15 15 19 22 23 25 25 23 21 20 16
24 22 20 22 25 24 21 17 18 15 15 13 18 18 16 9 14 17 13 14 14 16 19 16 14 22 19 19 18 20 21 21 21 20 24 31 27 27 27 28 27 25 23
23 21 21 21 24 24 20 17 19 20 16 20 21 22 18 12 19 18 23 21 23 24 22 22 23 27 22 19 17 21 20 23 23 23 24 38 36 34 33 32 30 27 26
25 23 23 21 26 22 25 23 21 23 21 23 25 26 26 28 27 27 27 27 27 27 29 29 31 31 28 23 23 28 30 25 21 22 22 26 39 33 33 31 29 28 30
26 31 31 29 33 31 28 26 24 22 24 24 24 25 24 25 23 23 25 26 27 28 31 33 34 37 29 27 31 33 30 25 22 24 25 21 21 27 33 36 31 29 29
33 35 30 27 29 33 31 29 28 25 23 22 22 22 22 22 21 21 23 27 28 31 33 36 40 42 34 36 35 30 26 24 20 15 29 32 27 25 33 36 38 36 36
31 29 30 28 28 30 29 27 26 24 23 23 23 25 24 23 23 22 26 30 30 33 38 37 32 32 28 26 21 18 16 11 5 20 22 20 24 29 34 37 36 39 41
36 33 30 31 30 30 27 27 26 27 26 26 25 26 26 25 24 25 26 31 33 30 25 22 21 23 24 22 14 10 6 4 1 3 6 5 13 17 24 29 32 35 39
31 33 34 35 35 35 31 25 23 26 30 27 25 23 23 25 27 27 26 17 14 12 9 8 6 10 14 16 12 5 7 5 5 7 9 10 15 20 23 26 29 29 31
29 30 31 31 35 31 28 27 23 26 24 25 25 26 21 21 19 15 12 7 3 4 6 8 8 10 14 17 13 4 2 3 6 10 10 13 16 18 24 28 31 33 34
30 33 32 31 30 31 33 33 32 28 25 23 21 18 15 13 10 8 5 4 6 8 9 9 11 12 14 18 20 11 3 5 19 7 12 17 22 22 21 22 26 25 26
27 26 27 29 30 31 29 23 23 17 15 14 14 13 11 8 7 7 5 5 5 4 8 13 17 20 20 20 16 22 17 11 8 10 11 20 31 24 28 27 23 24 25
31 27 25 26 26 28 30 22 18 19 18 15 13 12 8 6 7 8 7 9 12 12 14 16 19 21 22 21 20 17 17 12 20 9 19 34 30 26 32 24 32 22 30
34 30 28 27 25 25 24 23 23 22 20 17 15 11 11 10 9 11 12 14 15 15 15 16 20 22 24 25 20 21 19 15 17 16 24 32 37 26 32 28 21 26 30
Wind_Direction_500mb
147 172 162 144 140 137 135 138 135 129 125 120 115 112 110 111 111 111 107 103 98 94 91 88 82 78 72 66 58 55 59 59 60 60 62 60 60 59 64 65 68 63 73
147 151 151 143 140 136 139 138 130 128 124 120 116 114 112 112 111 108 104 102 97 88 80 74 71 70 64 57 51 48 45 42 46 47 45 39 42 54 59 63 76 70 74
144 156 145 146 141 140 142 139 131 128 125 119 117 117 116 114 111 107 104 100 90 81 73 71 67 62 56 52 47 44 42 39 40 45 60 56 10 38 46 53 59 60 65
152 147 144 148 146 146 146 140 134 130 125 121 118 120 119 117 113 108 102 95 84 74 70 71 64 60 52 51 48 44 37 35 44 47 39 34 36 25 33 39 48 54 63
145 146 153 151 151 152 151 143 140 136 130 128 125 124 125 121 116 109 99 87 72 64 68 71 62 54 50 43 41 40 35 38 46 44 22 45 41 347 15 27 40 45 54
143 146 156 154 156 160 154 149 147 144 138 135 134 131 132 132 129 120 107 90 80 70 57 52 43 40 40 36 29 26 31 32 53 11 24 24 64 343 9 17 19 15 17
144 151 158 158 159 162 158 156 155 153 147 143 142 140 141 142 143 144 139 129 112 91 66 31 4 10 20 20 26 31 45 40 48 20 11 21 24 10 14 10 352 339 343
151 137 173 160 162 163 162 161 162 162 157 154 153 154 158 160 160 159 150 147 140 55 344 332 330 338 351 8 16 23 14 18 26 349 359 1 352 358 7 2 351 332 304
156 154 157 160 163 165 165 167 167 168 166 165 166 170 173 173 171 170 171 180 193 286 319 326 324 331 344 352 2 16 18 16 37 323 5 358 335 351 351 354 339 312 300
162 157 158 159 166 163 170 172 173 175 175 175 179 182 178 184 187 204 209 220 292 338 351 351 346 347 353 358 353 353 4 3 17 349 344 303 336 333 349 347 339 339 314
167 170 167 169 170 170 165 190 179 183 183 182 187 192 185 213 231 269 261 277 312 337 354 10 17 16 4 0 4 2 355 352 328 330 350 316 327 334 327 330 333 324 315
167 171 174 175 177 177 175 181 179 199 187 195 204 202 208 230 229 243 274 290 299 316 322 328 331 338 13 343 331 355 347 338 326 324 303 307 319 323 316 306 304 310 307
172 179 177 184 177 179 179 188 192 200 207 217 217 216 230 236 257 262 277 301 308 308 313 323 324 312 310 311 304 306 310 317 304 306 292 295 304 307 312 302 292 294 290
165 175 176 186 189 182 188 186 200 193 204 203 224 228 240 245 258 246 260 284 304 298 298 310 303 309 316 310 296 294 293 295 288 288 288 288 290 296 297 300 286 282 283
163 170 176 178 186 193 191 206 212 211 204 224 232 235 229 229 240 259 268 276 284 291 296 299 300 303 310 313 308 300 293 291 285 285 278 289 287 288 290 288 289 276 276
166 170 183 179 188 189 197 202 207 210 218 221 229 236 242 248 256 257 263 268 279 286 292 298 298 299 300 302 303 296 297 297 292 286 281 280 294 293 286 284 280 280 268
174 180 185 188 197 201 209 210 206 202 214 221 229 231 232 240 248 257 265 273 281 286 291 295 298 302 305 302 301 300 299 293 292 286 296 291 283 303 286 268 265 257 253
188 194 194 193 201 206 205 205 208 211 215 221 230 235 239 236 239 250 263 273 281 283 285 288 292 291 295 295 299 300 292 291 283 307 246 240 230 214 250 252 252 250 242
205 205 206 204 205 209 209 212 223 226 229 234 240 246 248 253 258 259 265 274 275 278 283 289 294 300 301 306 312 313 307 318 317 257 263 264 268 261 257 259 249 248 247
209 213 214 212 218 224 226 228 227 231 227 230 233 240 251 261 267 270 278 282 281 282 288 294 295 304 310 321 325 305 333 329 22 359 20 340 272 269 265 261 255 252 249
203 211 215 220 222 219 215 207 210 217 228 236 245 249 254 261 265 270 275 277 281 281 296 323 333 349 354 8 28 350 342 70 95 33 6 309 282 291 291 290 279 274 269
204 209 214 214 220 213 215 204 203 226 236 241 247 255 251 255 257 254 249 234 176 61 73 67 54 43 7 21 38 6 285 240 5 319 337 341 324 319 310 303 297 291 280
203 212 215 214 214 212 214 221 226 232 235 234 233 238 235 235 224 211 176 134 76 59 44 58 67 68 37 36 54 77 6 348 341 350 17 347 346 344 335 327 317 315 306
186 184 195 199 203 210 206 199 197 186 179 188 201 215 195 175 171 184 153 117 120 87 73 66 70 71 75 56 44 48 70 55 19 330 339 347 350 353 343 341 334 335 327
173 170 173 176 178 185 187 184 185 178 189 157 154 154 146 139 123 116 119 109 105 90 79 73 72 73 65 65 60 49 33 29 14 348 322 330 348 340 342 339 334 338 333
165 160 157 162 169 174 175 174 168 165 157 156 155 127 119 105 86 98 93 94 100 93 87 77 71 67 68 64 58 53 44 34 4 357 333 332 330 323 328 341 344 335 331
Wind_Speed_850mb
26 22 27 24 24 24 24 24 26 28 30 31 32 33 34 35 37 36 38 39 36 35 34 32 31 31 32 31 30 30 26 24 26 27 27 28 28 26 26 25 34 14 22
32 26 29 25 25 26 25 26 30 31 31 31 31 32 33 36 37 35 35 34 31 30 28 27 27 27 26 27 28 28 25 20 19 20 25 30 26 25 25 23 22 19 22
32 30 29 27 26 27 29 30 32 33 33 32 31 31 33 33 33 31 30 28 25 25 24 25 23 24 24 24 25 25 24 25 15 15 19 14 10 22 22 20 19 19 20
30 30 27 30 29 29 30 32 34 34 31 30 29 30 29 28 27 25 22 21 20 19 19 19 18 20 20 21 22 23 23 23 19 17 17 11 9 17 17 17 17 15 15
31 26 32 32 30 31 32 33 34 34 30 26 25 25 25 23 21 18 15 14 14 13 13 13 13 14 15 17 17 19 22 25 23 23 8 11 7 10 13 13 12 13 13
33 25 34 34 32 33 33 35 35 32 28 25 24 22 21 19 16 13 10 7 7 8 8 8 8 9 11 13 15 18 19 21 23 11 10 7 9 10 12 10 8 7 7
32 31 32 36 35 36 35 35 34 31 27 25 24 21 19 17 15 11 8 7 6 5 3 4 4 6 8 11 15 16 18 20 17 8 9 10 4 14 12 11 9 4 4
29 31 30 36 37 37 36 35 34 31 27 25 22 21 18 15 13 11 8 5 3 0 2 4 7 8 9 11 13 13 15 18 14 11 8 7 11 14 14 11 9 9 7
25 29 33 30 36 37 36 34 32 29 27 25 23 20 18 16 13 10 9 6 3 2 6 8 9 11 10 11 12 12 15 15 9 9 8 7 13 14 12 13 10 7 8
26 27 25 32 30 29 32 34 32 29 27 25 23 21 17 13 11 9 6 5 4 7 8 9 10 10 9 9 12 12 15 9 10 6 8 7 15 16 15 13 10 8 7
30 31 31 33 36 30 26 29 31 29 27 23 19 18 16 7 8 3 11 7 7 8 10 10 11 10 10 12 13 14 13 9 11 8 8 15 16 16 17 17 12 8 8
24 22 20 21 23 21 18 18 19 17 13 15 13 19 10 15 13 11 14 14 14 13 13 14 14 14 14 9 14 18 12 12 12 11 12 19 20 20 18 18 16 12 10
26 23 23 25 29 22 19 18 16 14 14 13 18 17 16 12 13 10 10 11 11 17 10 13 15 11 14 14 16 15 15 14 15 15 19 22 23 25 25 23 21 20 16
24 22 20 22 25 24 21 17 18 15 15 13 18 18 16 9 14 17 13 14 14 16 19 16 14 22 19 19 18 20 21 21 21 20 24 31 27 27 27 28 27 25 23
23 21 21 21 24 24 20 17 19 20 16 20 21 22 18 12 19 18 23 21 23 24 22 22 23 27 22 19 17 21 20 23 23 23 24 38 36 34 33 32 30 27 26
25 23 23 21 26 22 25 23 21 23 21 23 25 26 26 28 27 27 27 27 27 27 29 29 31 31 28 23 23 28 30 25 21 22 22 26 39 33 33 31 29 28 30
26 31 31 29 33 31 28 26 24 22 24 24 24 25 24 25 23 23 25 26 27 28 31 33 34 37 29 27 31 33 30 25 22 24 25 21 21 27 33 36 31 29 29
33 35 30 27 29 33 31 29 28 25 23 22 22 22 22 22 21 21 23 27 28 31 33 36 40 42 34 36 35 30 26 24 20 15 29 32 27 25 33 36 38 36 36
31 29 30 28 28 30 29 27 26 24 23 23 23 25 24 23 23 22 26 30 30 33 38 37 32 32 28 26 21 18 16 11 5 20 22 20 24 29 34 37 36 39 41
36 33 30 31 30 30 27 27 26 27 26 26 25 26 26 25 24 25 26 31 33 30 25 22 21 23 24 22 14 10 6 4 1 3 6 5 13 17 24 29 32 35 39
31 33 34 35 35 35 31 25 23 26 30 27 25 23 23 25 27 27 26 17 14 12 9 8 6 10 14 16 12 5 7 5 5 7 9 10 15 20 23 26 29 29 31
29 30 31 31 35 31 28 27 23 26 24 25 25 26 21 21 19 15 12 7 3 4 6 8 8 10 14 17 13 4 2 3 6 10 10 13 16 18 24 28 31 33 34
30 33 32 31 30 31 33 33 32 28 25 23 21 18 15 13 10 8 5 4 6 8 9 9 11 12 14 18 20 11 3 5 19 7 12 17 22 22 21 22 26 25 26
27 26 27 29 30 31 29 23 23 17 15 14 14 13 11 8 7 7 5 5 5 4 8 13 17 20 20 20 16 22 17 11 8 10 11 20 31 24 28 27 23 24 25
31 27 25 26 26 28 30 22 18 19 18 15 13 12 8 6 7 8 7 9 12 12 14 16 19 21 22 21 20 17 17 12 20 9 19 34 30 26 32 24 32 22 30
34 30 28 27 25 25 24 23 23 22 20 17 15 11 11 10 9 11 12 14 15 15 15 16 20 22 24 25 20 21 19 15 17 16 24 32 37 26 32 28 21 26 30
Wind_Direction_850mb
147 172 162 144 140 137 135 138 135 129 125 120 115 112 110 111 111 111 107 103 98 94 91 88 82 78 72 66 58 55 59 59 60 60 62 60 60 59 64 65 68 63 73
147 151 151 143 140 136 139 138 130 128 124 120 116 114 112 112 111 108 104 102 97 88 80 74 71 70 64 57 51 48 45 42 46 47 45 39 42 54 59 63 76 70 74
144 156 145 146 141 140 142 139 131 128 125 119 117 117 116 114 111 107 104 100 90 81 73 71 67 62 56 52 47 44 42 39 40 45 60 56 10 38 46 53 59 60 65
152 147 144 148 146 146 146 140 134 130 125 121 118 120 119 117 113 108 102 95 84 74 70 71 64 60 52 51 48 44 37 35 44 47 39 34 36 25 33 39 48 54 63
145 146 153 151 151 152 151 143 140 136 130 128 125 124 125 121 116 109 99 87 72 64 68 71 62 54 50 43 41 40 35 38 46 44 22 45 41 347 15 27 40 45 54
143 146 156 154 156 160 154 149 147 144 138 135 134 131 132 132 129 120 107 90 80 70 57 52 43 40 40 36 29 26 31 32 53 11 24 24 64 343 9 17 19 15 17
144 151 158 158 159 162 158 156 155 153 147 143 142 140 141 142 143 144 139 129 112 91 66 31 4 10 20 20 26 31 45 40 48 20 11 21 24 10 14 10 352 339 343
151 137 173 160 162 163 162 161 162 162 157 154 153 154 158 160 160 159 150 147 140 55 344 332 330 338 351 8 16 23 14 18 26 349 359 1 352 358 7 2 351 332 304
156 154 157 160 163 165 165 167 167 168 166 165 166 170 173 173 171 170 171 180 193 286 319 326 324 331 344 352 2 16 18 16 37 323 5 358 335 351 351 354 339 312 300
162 157 158 159 166 163 170 172 173 175 175 175 179 182 178 184 187 204 209 220 292 338 351 351 346 347 353 358 353 353 4 3 17 349 344 303 336 333 349 347 339 339 314
167 170 167 169 170 170 165 190 179 183 183 182 187 192 185 213 231 269 261 277 312 337 354 10 17 16 4 0 4 2 355 352 328 330 350 316 327 334 327 330 333 324 315
167 171 174 175 177 177 175 181 179 199 187 195 204 202 208 230 229 243 274 290 299 316 322 328 331 338 13 343 331 355 347 338 326 324 303 307 319 323 316 306 304 310 307
172 179 177 184 177 179 179 188 192 200 207 217 217 216 230 236 257 262 277 301 308 308 313 323 324 312 310 311 304 306 310 317 304 306 292 295 304 307 312 302 292 294 290
165 175 176 186 189 182 188 186 200 193 204 203 224 228 240 245 258 246 260 284 304 298 298 310 303 309 316 310 296 294 293 295 288 288 288 288 290 296 297 300 286 282 283
163 170 176 178 186 193 191 206 212 211 204 224 232 235 229 229 240 259 268 276 284 291 296 299 300 303 310 313 308 300 293 291 285 285 278 289 287 288 290 288 289 276 276
166 170 183 179 188 189 197 202 207 210 218 221 229 236 242 248 256 257 263 268 279 286 292 298 298 299 300 302 303 296 297 297 292 286 281 280 294 293 286 284 280 280 268
174 180 185 188 197 201 209 210 206 202 214 221 229 231 232 240 248 257 265 273 281 286 291 295 298 302 305 302 301 300 299 293 292 286 296 291 283 303 286 268 265 257 253
188 194 194 193 201 206 205 205 208 211 215 221 230 235 239 236 239 250 263 273 281 283 285 288 292 291 295 295 299 300 292 291 283 307 246 240 230 214 250 252 252 250 242
205 205 206 204 205 209 209 212 223 226 229 234 240 246 248 253 258 259 265 274 275 278 283 289 294 300 301 306 312 313 307 318 317 257 263 264 268 261 257 259 249 248 247
209 213 214 212 218 224 226 228 227 231 227 230 233 240 251 261 267 270 278 282 281 282 288 294 295 304 310 321 325 305 333 329 22 359 20 340 272 269 265 261 255 252 249
203 211 215 220 222 219 215 207 210 217 228 236 245 249 254 261 265 270 275 277 281 281 296 323 333 349 354 8 28 350 342 70 95 33 6 309 282 291 291 290 279 274 269
204 209 214 214 220 213 215 204 203 226 236 241 247 255 251 255 257 254 249 234 176 61 73 67 54 43 7 21 38 6 285 240 5 319 337 341 324 319 310 303 297 291 280
203 212 215 214 214 212 214 221 226 232 235 234 233 238 235 235 224 211 176 134 76 59 44 58 67 68 37 36 54 77 6 348 341 350 17 347 346 344 335 327 317 315 306
186 184 195 199 203 210 206 199 197 186 179 188 201 215 195 175 171 184 153 117 120 87 73 66 70 71 75 56 44 48 70 55 19 330 339 347 350 353 343 341 334 335 327
173 170 173 176 178 185 187 184 185 178 189 157 154 154 146 139 123 116 119 109 105 90 79 73 72 73 65 65 60 49 33 29 14 348 322 330 348 340 342 339 334 338 333
165 160 157 162 169 174 175 174 168 165 157 156 155 127 119 105 86 98 93 94 100 93 87 77 71 67 68 64 58 53 44 34 4 357 333 332 330 323 328 341 344 335 331